Regional Weather Roundup
Issued by NWS

Home | Current Version | Previous Version | Text Only | Print | Product List | Glossary On
Versions: 1 2 3 4 5 6 7 8 9 10 11 12 13 14 15 16 17 18 19 20 21 22 23 24 25 26 27 28 29 30 31 32 33 34 35 36 37 38 39 40 41 42 43 44 45 46 47 48 49 50
000
ASUS42 KFFC 272003
RWRGA
WEATHER ROUNDUP FOR GEORGIA
NATIONAL WEATHER SERVICE PEACHTREE CITY GA
400 PM EDT FRI MAR 27 2015

NOTE: "FAIR" INDICATES FEW OR NO CLOUDS BELOW 12,000 FEET WITH NO
SIGNIFICANT WEATHER AND/OR OBSTRUCTIONS TO VISIBILITY.

* = USE WITH CAUTION. THE STATIONS MARKED WITH AN ASTERISK MAY NOT
REPORT WEATHER SUCH AS PRECIPITATION, FOG, OR THUNDER AND ARE NOT
QUALITY CONTROLLED BY NWS.

THE REMARK "TC" DENOTES TEMPERATURE READING IN DEGREES CELSIUS.

GAZ001>058-272100-
NORTH GEORGIA

CITY           SKY/WX    TMP DP  RH WIND       PRES   REMARKS
ATLANTA        MOSUNNY   58  29  33 NW22      29.83F
ATHENS         SUNNY     60  35  39 NW21G32   29.76S
CHAMBLEE       SUNNY     56  28  34 N17G26    29.82F
PEACHTREE CITY SUNNY     60  27  28 NW23G29   29.84F
ROME           MOSUNNY   56  28  34 N15G23    29.86F
WEST ATLANTA   SUNNY     58  29  33 W24G33    29.83F
GAINESVILLE    SUNNY     53  30  41 NW21G28   29.81F
CARTERSVILLE   MOSUNNY   57  30  35 N10G18    29.85F


CITY           SKY/WX    TMP DP  RH WIND       PRES   REMARKS
DALTON*        PTSUNNY   54  32  43 NW12G18   29.87S
MARIETTA       MOSUNNY   58  29  33 NW12G26   29.83F
KENNESAW*      MOSUNNY   55  27  33 N13G23    29.85F
$$

GAZ059>098-102>109-272100-
CENTRAL GEORGIA

CITY           SKY/WX    TMP DP  RH WIND       PRES   REMARKS
AUGUSTA-BUSH   PTSUNNY   65  45  48 NW18G25   29.71R
AUGUSTA-DANIEL CLOUDY    62  45  53 NW13G18   29.72S
COLUMBUS       SUNNY     62  33  33 NW22G32   29.84F
MACON          MOSUNNY   64  34  32 NW20G26   29.79F
ROBINS AFB     MOSUNNY   64  32  30 NW21G26   29.79F


CITY           SKY/WX    TMP DP  RH WIND       PRES   REMARKS
LAGRANGE*      SUNNY     63  35  35 NW13G24   29.85F
SYLVANIA*      CLOUDY    65  53  65 NW17      29.71S
MILLEDGEVILLE* MOSUNNY   63  39  42 NW13G21   29.78S
$$

GAZ099>101-110>166-272100-
SOUTH GEORGIA

CITY           SKY/WX    TMP DP  RH WIND       PRES   REMARKS
SAVANNAH       CLOUDY    67  60  78 W18G24    29.68S
VALDOSTA       CLOUDY    61  52  72 VRB7      29.81R
ALMA           CLOUDY    62  50  64 NW14      29.76F
ST SIMONS      LGT RAIN  68  63  84 W17       29.70F
FT STEWART     CLOUDY    65  57  76 W16G23    29.68S
ALBANY         PTSUNNY   60  43  53 W12       29.85F
HUNTER AFB     CLOUDY    67  67  98 W15       29.65F
MOODY AFB      CLOUDY    60  51  71 NW16      29.79S
BRUNSWICK      CLOUDY    72  61  68 W16G38    29.71S


CITY           SKY/WX    TMP DP  RH WIND       PRES   REMARKS
BAINBRIDGE*    CLOUDY    63  46  55 NW18      29.86F
MOULTRIE*      PTSUNNY   59  50  72 NW14G20   29.84S
VIDALIA*       CLOUDY    63  50  63 W15       29.74F
WAYCROSS*      CLOUDY    65  58  77 NW14G25   29.76R
DOUGLAS*       CLOUDY    63  50  63 NW15G23   29.79F
$$



USA.gov is the U.S. government's official web portal to all federal, state and local government web resources and services.